1522018800.55,33043,10.25,72536.5,-9.97,-43.01,-42.95,0,*5C
1522018801.77,33044,10.25,72536.8,-9.97,-43.01,-43.01,0,*57
1522018802.97,33045,10.25,72536.5,-9.97,-43.15,-43.01,0,*53
1522018804.18,33046,10.25,72536.3,-9.97,-43.15,-43.01,0,*50
1522018805.42,33047,10.25,72536.0,-9.97,-43.15,-42.95,0,*5D
1522018806.66,33048,10.25,72532.0,-9.97,-43.15,-42.95,0,*52
1522018807.86,33049,10.25,72536.8,-9.97,-43.15,-43.01,0,*5F
1522018809.14,33050,10.25,72536.5,-9.95,-43.21,-43.21,0,*50
1522018810.37,33051,10.25,72538.8,-9.97,-43.41,-43.21,0,*55
1522018811.62,33052,10.25,72536.0,-9.95,-43.35,-43.21,0,*57
1522018812.86,33053,10.25,72538.8,-9.97,-43.21,-43.15,0,*56
1522018814.09,33054,10.25,72538.8,-9.97,-43.15,-43.21,0,*51
1522018815.34,33055,10.25,72538.3,-9.97,-43.21,-43.21,0,*57
1522018816.62,33056,10.25,72532.5,-9.99,-43.29,-43.29,0,*5A
1522018817.85,33057,10.25,72532.5,-9.97,-43.21,-43.15,0,*52
1522018819.09,33058,10.25,72536.0,-9.97,-43.21,-43.15,0,*5D
1522018820.32,33059,10.25,72534.3,-9.97,-43.21,-43.15,0,*5C
1522018821.55,33060,10.25,72536.8,-9.97,-43.41,-43.21,0,*57
1522018822.78,33061,10.25,72534.0,-9.97,-43.35,-43.21,0,*55
1522018824.01,33062,10.25,72536.0,-9.97,-43.35,-43.21,0,*56
1522018825.28,33063,10.25,72534.0,-9.99,-43.41,-43.29,0,*52
1522018826.56,33064,10.25,72532.3,-9.99,-43.29,-43.21,0,*53
1522018827.84,33065,10.25,72534.8,-9.99,-43.29,-43.09,0,*58
1522018829.1,33066,10.25,72534.0,-9.99,-43.41,-43.29,0,*57
1522018830.34,33067,10.25,72534.0,-9.97,-43.55,-43.35,0,*50
1522018831.57,33068,10.25,72532.3,-9.97,-43.21,-43.01,0,*5B
1522018832.81,33069,10.25,72534.3,-9.99,-43.01,-43.01,0,*56
1522018834.09,33070,10.25,72534.0,-9.99,-43.29,-43.21,0,*56
1522018835.3,33071,10.25,72532.5,-9.97,-43.15,-43.01,0,*54
1522018836.51,33072,10.25,72534.8,-9.97,-43.01,-43.01,0,*52
1522018837.78,33073,10.25,72534.3,-9.97,-42.95,-42.95,0,*53
1522018839.02,33074,10.25,72538.0,-9.97,-43.15,-42.95,0,*5D
1522018840.25,33075,10.25,72532.0,-9.97,-43.35,-43.21,0,*50
1522018841.46,33076,10.25,72534.8,-9.97,-43.15,-43.01,0,*53
1522018842.67,33077,10.25,72534.8,-9.97,-43.15,-43.15,0,*57
1522018843.93,33078,10.25,72534.5,-9.97,-42.95,-42.83,0,*5F
1522018845.18,33079,10.25,72534.8,-9.97,-43.01,-42.95,0,*55
1522018846.38,33080,10.25,72532.3,-9.97,-43.15,-43.01,0,*5A
1522018847.6,33081,10.25,72530.5,-9.97,-43.01,-42.75,0,*5C
1522018848.87,33082,10.25,72532.5,-9.97,-42.95,-42.95,0,*5D
1522018850.1,33083,10.25,72536.0,-9.95,-43.15,-43.01,0,*5B
1522018851.35,33084,10.25,72536.5,-9.97,-43.01,-42.95,0,*57
1522018852.59,33085,10.25,72536.3,-9.95,-43.01,-43.15,0,*5D
1522018853.82,33086,10.25,72534.5,-9.97,-43.21,-43.01,0,*5B
1522018855.05,33087,10.25,72532.3,-9.97,-43.35,-43.21,0,*5D
1522018856.26,33088,10.25,72534.8,-9.97,-43.01,-43.01,0,*57
1522018857.47,33089,10.25,72532.5,-9.97,-43.35,-43.15,0,*54
1522018858.71,33090,10.25,72532.5,-9.97,-43.15,-42.95,0,*57
1522018859.92,33091,10.25,72534.8,-9.97,-43.01,-43.01,0,*5F
1522018861.16,33092,10.25,72534.3,-9.97,-43.21,-43.01,0,*5E
1522018862.36,33093,10.25,72534.0,-9.97,-43.35,-43.15,0,*5F
1522018863.57,33094,10.25,72530.0,-9.97,-43.35,-43.15,0,*58
1522018864.81,33095,10.25,72534.3,-9.97,-43.15,-42.95,0,*52
1522018866.1,33096,10.25,72532.0,-9.99,-43.29,-43.09,0,*54
1522018867.38,33097,10.25,72532.0,-9.99,-43.29,-43.21,0,*5F
1522018868.63,33098,10.25,72534.3,-9.99,-43.49,-43.29,0,*5E
1522018869.87,33099,10.25,72534.3,-9.97,-43.55,-43.41,0,*52
1522018871.11,33100,10.25,72530.3,-9.97,-43.41,-43.21,0,*50
1522018872.34,33101,10.25,72532.0,-9.97,-43.35,-43.21,0,*52
1522018873.58,33102,10.25,72530.5,-9.97,-43.41,-43.21,0,*52
1522018874.79,33103,10.25,72534.3,-9.97,-43.35,-43.15,0,*57
1522018876.03,33104,10.25,72534.0,-10.01,-43.41,-43.29,0,*6B
1522018877.26,33105,10.25,72534.5,-9.97,-43.35,-43.21,0,*56
1522018878.5,33106,10.25,72534.0,-9.99,-43.61,-43.49,0,*54
1522018879.76,33107,10.25,72534.8,-9.99,-43.09,-43.01,0,*57
1522018881.04,33108,10.25,72532.3,-9.99,-43.21,-43.09,0,*5A
1522018882.3,33109,10.25,72534.8,-9.99,-43.09,-43.01,0,*59
1522018883.54,33110,10.25,72534.8,-9.99,-43.01,-43.01,0,*59
1522018884.82,33111,10.25,72534.0,-9.99,-43.29,-43.21,0,*50
1522018886.1,33112,10.25,72530.3,-9.99,-43.21,-43.09,0,*51
1522018887.36,33113,10.25,72534.0,-9.99,-43.41,-43.21,0,*5C
1522018888.64,33114,10.25,72534.3,-9.99,-43.29,-43.21,0,*55
1522018889.92,33115,10.25,72534.5,-9.99,-43.29,-43.21,0,*54
1522018891.21,33116,10.25,72534.8,-9.99,-43.09,-43.09,0,*5F
1522018892.44,33117,10.25,72530.3,-9.99,-42.89,-43.01,0,*5F
1522018893.68,33118,10.25,72534.8,-9.99,-42.75,-42.75,0,*51
1522018894.92,33119,10.25,72536.8,-9.99,-42.75,-42.63,0,*57
1522018896.16,33120,10.25,72534.3,-9.97,-42.75,-42.69,0,*59
1522018897.42,33121,10.25,72536.5,-9.97,-42.69,-42.69,0,*55
1522018898.62,33122,10.25,72530.8,-9.97,-43.15,-43.01,0,*53
1522018899.85,33123,10.25,72538.3,-9.97,-43.21,-43.15,0,*50
1522018901.12,33124,10.25,72536.5,-9.97,-42.95,-42.69,0,*53
1522018902.36,33125,10.25,72532.8,-9.97,-42.69,-42.51,0,*5A
1522018903.61,33126,10.25,72536.3,-9.97,-42.69,-42.57,0,*5F
1522018904.87,33127,10.25,72532.5,-9.97,-42.83,-42.83,0,*53
1522018906.11,33128,10.25,72536.0,-9.97,-42.83,-42.75,0,*55
1522018907.38,33129,10.25,72534.8,-9.95,-42.69,-42.57,0,*52
1522018908.67,33130,10.25,72534.3,-9.95,-42.95,-42.83,0,*50
1522018909.89,33131,10.25,72534.8,-9.97,-43.01,-42.75,0,*56
1522018911.12,33132,10.25,72532.0,-9.95,-42.75,-42.75,0,*55
1522018912.39,33133,10.25,72532.5,-9.95,-42.95,-42.75,0,*5A
1522018913.67,33134,10.25,72534.5,-9.95,-42.95,-42.83,0,*54
1522018914.96,33135,10.25,72534.0,-9.95,-42.95,-42.95,0,*52
1522018916.22,33136,10.25,72532.8,-9.95,-43.15,-42.95,0,*58
1522018917.45,33137,10.25,72538.0,-9.95,-43.35,-43.15,0,*52
1522018918.71,33138,10.25,72532.3,-9.95,-43.41,-43.21,0,*59
1522018919.92,33139,10.25,72534.0,-9.97,-43.41,-43.15,0,*5D
1522018921.15,33140,10.25,72530.8,-9.95,-43.35,-43.15,0,*52
1522018922.43,33141,10.25,72532.8,-9.95,-42.83,-42.95,0,*56
1522018923.64,33142,10.25,72530.0,-9.97,-43.15,-43.15,0,*50
1522018924.87,33143,10.25,72530.8,-9.97,-43.21,-43.01,0,*53
1522018926.08,33144,10.25,72530.0,-9.97,-43.35,-43.15,0,*54
1522018927.36,33145,10.25,72534.3,-9.95,-43.55,-43.21,0,*56
1522018928.56,33146,10.25,72532.3,-9.97,-43.15,-43.01,0,*51
1522018929.82,33147,10.19,72528.3,-9.95,-43.15,-42.95,0,*5E
1522018931.06,33148,10.25,72538.3,-9.97,-43.01,-42.83,0,*51
1522018932.35,33149,10.25,72536.0,-9.95,-42.95,-42.83,0,*5E
1522018933.6,33150,10.25,72532.8,-9.95,-43.35,-43.21,0,*54
1522018934.83,33151,10.25,72534.5,-9.95,-43.15,-43.01,0,*55
1522018936.09,33152,10.25,72534.5,-9.95,-43.55,-43.35,0,*55
1522018937.33,33153,10.25,72532.3,-9.97,-43.01,-42.83,0,*5B
1522018938.59,33154,10.25,72534.0,-9.97,-42.95,-42.83,0,*50
1522018939.81,33155,10.25,72532.0,-9.97,-43.01,-42.75,0,*54
1522018941.05,33156,10.25,72532.0,-9.95,-43.01,-43.01,0,*57
1522018942.3,33157,10.25,72534.8,-9.95,-42.75,-42.57,0,*56
1522018943.58,33158,10.25,72532.3,-9.95,-42.95,-42.83,0,*5E
1522018944.86,33159,10.25,72528.5,-9.95,-42.83,-42.69,0,*5C
1522018946.14,33160,10.25,72530.0,-9.95,-42.69,-42.57,0,*5F
1522018947.39,33161,10.25,72534.8,-9.95,-42.75,-42.57,0,*53
1522018948.68,33162,10.19,72530.3,-9.91,-42.95,-42.69,0,*57
1522018949.95,33163,10.25,72532.8,-9.91,-42.95,-42.75,0,*5B
1522018951.2,33164,10.25,72532.8,-9.95,-42.83,-42.75,0,*5F
1522018952.44,33165,10.25,72534.3,-9.91,-42.89,-42.75,0,*50
1522018953.68,33166,10.25,72532.0,-9.89,-42.95,-42.89,0,*54
1522018954.91,33167,10.25,72532.8,-9.91,-42.89,-42.89,0,*51
1522018956.12,33168,10.25,72534.3,-9.89,-42.89,-42.75,0,*54
1522018957.39,33169,10.25,72534.3,-9.91,-42.95,-42.75,0,*51
1522018958.63,33170,10.25,72532.0,-9.89,-42.95,-42.75,0,*50
1522018959.84,33171,10.25,72532.8,-9.89,-42.89,-42.75,0,*5C
1522018961.1,33172,10.25,72534.0,-9.91,-42.75,-42.69,0,*58
1522018962.33,33173,10.25,72532.8,-9.91,-42.89,-42.75,0,*57
1522018963.55,33174,10.25,72532.0,-9.89,-42.89,-42.75,0,*59
1522018964.78,33175,10.25,72534.5,-9.89,-43.15,-42.95,0,*52
1522018966.04,33176,10.25,72530.3,-9.91,-43.09,-42.89,0,*58
1522018967.28,33177,10.25,72534.8,-9.89,-42.95,-42.75,0,*57
1522018968.54,33178,10.25,72530.3,-9.91,-42.95,-42.89,0,*52
1522018969.81,33179,10.25,72528.5,-9.89,-43.09,-42.95,0,*53
1522018971.05,33180,10.25,72530.0,-9.89,-42.95,-42.75,0,*5F
1522018972.28,33181,10.25,72530.3,-9.89,-42.89,-42.95,0,*5D
1522018973.52,33182,10.25,72532.0,-9.87,-43.01,-42.89,0,*5C
1522018974.77,33183,10.25,72532.3,-9.87,-42.89,-42.83,0,*56
1522018976.01,33184,10.25,72532.0,-9.87,-43.01,-42.89,0,*5A
1522018977.27,33185,10.25,72532.0,-9.87,-43.01,-42.83,0,*51
1522018978.5,33186,10.25,72528.5,-9.89,-43.15,-42.95,0,*5E
1522018979.77,33187,10.25,72534.3,-9.89,-42.95,-42.95,0,*56
1522018981.02,33188,10.25,72532.3,-9.87,-42.89,-42.83,0,*5D
1522018982.27,33189,10.25,72534.0,-9.87,-42.89,-42.83,0,*5C
1522018983.55,33190,10.25,72534.3,-9.87,-42.83,-42.69,0,*5A
1522018984.83,33191,10.25,72532.0,-9.87,-43.09,-42.83,0,*5C
1522018986.07,33192,10.25,72534.5,-9.87,-43.01,-42.89,0,*5D
1522018987.3,33193,10.25,72536.3,-9.87,-43.01,-42.89,0,*5C
1522018988.54,33194,10.25,72532.3,-9.87,-43.01,-42.89,0,*5B
1522018989.76,33195,10.25,72534.3,-9.87,-42.89,-42.89,0,*5B
1522018991.02,33196,10.25,72532.8,-9.87,-43.01,-42.69,0,*57
1522018992.26,33197,10.25,72534.3,-9.87,-43.01,-42.89,0,*58
1522018993.51,33198,10.19,72530.8,-9.87,-42.89,-42.83,0,*5C
1522018994.75,33199,10.19,72530.0,-9.87,-43.01,-42.89,0,*56
1522018996.0,33200,10.25,72530.3,-9.87,-42.89,-42.83,0,*5E
1522018997.25,33201,10.25,72534.0,-9.87,-42.89,-42.69,0,*5B
1522018998.48,33202,10.25,72534.0,-9.87,-42.89,-42.89,0,*56
1522018999.73,33203,10.25,72532.5,-9.87,-42.89,-42.83,0,*5D
1522019000.99,33204,10.25,72530.0,-9.87,-42.83,-42.63,0,*5E
1522019002.27,33205,10.25,72528.8,-9.87,-42.83,-42.69,0,*55
1522019003.5,33206,10.25,72534.3,-9.85,-42.89,-42.69,0,*5E
1522019004.75,33207,10.19,72528.5,-9.87,-42.89,-42.69,0,*5D
1522019006.03,33208,10.25,72532.8,-9.87,-42.83,-42.69,0,*58
1522019007.24,33209,10.25,72532.8,-9.85,-43.01,-42.89,0,*5E
1522019008.47,33210,10.25,72534.0,-9.85,-42.89,-42.83,0,*5D
1522019009.73,33211,10.19,72530.5,-9.85,-42.83,-42.69,0,*52
1522019010.99,33212,10.19,72530.5,-9.87,-42.69,-42.63,0,*5D
1522019012.22,33213,10.25,72530.8,-9.85,-42.89,-42.83,0,*5E
1522019013.45,33214,10.25,72532.8,-9.85,-42.89,-42.69,0,*5D
1522019014.68,33215,10.25,72536.8,-9.85,-43.01,-42.83,0,*59
1522019015.92,33216,10.25,72534.0,-9.85,-43.01,-42.83,0,*5A
1522019017.12,33217,10.19,72528.0,-9.85,-42.89,-42.89,0,*50
1522019018.35,33218,10.25,72530.3,-9.87,-42.89,-42.89,0,*5D
1522019019.61,33219,10.25,72532.8,-9.85,-43.29,-43.09,0,*5C
1522019020.84,33220,10.25,72538.5,-9.85,-43.09,-43.01,0,*5C
1522019022.1,33221,10.25,72532.0,-9.87,-43.41,-43.09,0,*5B
1522019023.36,33222,10.25,72534.0,-9.87,-43.09,-43.01,0,*5C
1522019024.59,33223,10.25,72534.0,-9.85,-43.09,-43.01,0,*5F
1522019025.83,33224,10.25,72534.0,-9.85,-43.09,-43.01,0,*58
1522019027.06,33225,10.19,72528.3,-9.85,-43.01,-42.83,0,*5A
1522019028.35,33226,10.25,72536.0,-9.87,-43.09,-42.83,0,*53
1522019029.6,33227,10.25,72534.5,-9.85,-43.21,-43.09,0,*59
1522019030.86,33228,10.25,72532.3,-9.87,-43.09,-42.89,0,*57
1522019032.09,33229,10.19,72530.0,-9.87,-43.01,-43.01,0,*5F
1522019033.31,33230,10.25,72534.3,-9.85,-43.01,-43.01,0,*55
1522019034.54,33231,10.25,72534.3,-9.85,-43.09,-43.01,0,*5C
1522019035.8,33232,10.19,72530.0,-9.87,-43.09,-43.01,0,*5D
1522019037.01,33233,10.25,72534.8,-9.85,-43.01,-42.89,0,*57
1522019038.22,33234,10.25,72534.8,-9.85,-43.01,-42.89,0,*50
1522019039.48,33235,10.19,72530.5,-9.87,-43.09,-42.89,0,*5B
1522019040.73,33236,10.25,72532.8,-9.85,-42.83,-42.69,0,*57
1522019041.94,33237,10.25,72532.0,-9.85,-43.01,-42.89,0,*53
1522019043.15,33238,10.19,72532.0,-9.85,-43.01,-42.89,0,*5C
1522019044.41,33239,10.19,72532.8,-9.87,-43.09,-43.01,0,*56
1522019045.61,33240,10.19,72534.5,-9.85,-42.89,-42.89,0,*52
1522019046.85,33241,10.19,72530.8,-9.85,-42.89,-42.69,0,*5D
1522019048.07,33242,10.19,72534.3,-9.85,-42.89,-42.83,0,*5A
1522019049.33,33243,10.25,72534.3,-9.85,-42.69,-42.83,0,*55
1522019050.56,33244,10.25,72536.3,-9.85,-43.09,-42.89,0,*5F
1522019051.8,33245,10.19,72532.3,-9.85,-43.09,-43.01,0,*5F
1522019053.05,33246,10.19,72532.5,-9.85,-43.29,-43.09,0,*56
1522019054.31,33247,10.25,72534.3,-9.85,-43.21,-43.09,0,*5F
1522019055.54,33248,10.25,72534.3,-9.85,-43.09,-43.01,0,*52
1522019056.8,33249,10.25,72532.3,-9.85,-43.21,-43.09,0,*51
1522019058.05,33250,10.25,72534.3,-9.85,-43.21,-43.09,0,*59
1522019059.31,33251,10.19,72532.5,-9.85,-43.21,-43.09,0,*58
1522019060.56,33252,10.19,72532.5,-9.83,-43.35,-43.21,0,*52
1522019061.8,33253,10.25,72534.8,-9.83,-43.35,-43.21,0,*53
1522019063.06,33254,10.25,72536.0,-9.85,-43.29,-43.21,0,*5F
1522019064.32,33255,10.25,72532.5,-9.85,-43.29,-43.09,0,*54
1522019065.6,33256,10.19,72530.8,-9.87,-43.29,-43.21,0,*5F
1522019066.85,33257,10.19,72528.8,-9.85,-43.21,-43.09,0,*5E
1522019068.08,33258,10.25,72532.5,-9.85,-43.21,-42.89,0,*58
1522019069.36,33259,10.25,72532.0,-9.87,-43.21,-43.09,0,*52
1522019070.59,33260,10.25,72532.3,-9.85,-43.41,-43.21,0,*56
1522019071.84,33261,10.25,72534.3,-9.85,-43.21,-43.21,0,*51
1522019073.12,33262,10.25,72530.0,-9.87,-43.29,-43.21,0,*58
1522019074.34,33263,10.25,72530.8,-9.85,-43.21,-43.01,0,*51
1522019075.58,33264,10.25,72528.8,-9.85,-43.41,-43.21,0,*52
1522019076.83,33265,10.19,72530.3,-9.85,-43.29,-43.09,0,*57
1522019078.1,33266,10.25,72532.8,-9.85,-43.09,-43.09,0,*56
1522019079.31,33267,10.19,72528.5,-9.85,-43.01,-43.01,0,*57
1522019080.59,33268,10.25,72532.0,-9.87,-43.09,-43.09,0,*5A
1522019081.82,33269,10.25,72534.5,-9.85,-43.21,-43.01,0,*5B
1522019083.05,33270,10.19,72532.0,-9.85,-43.09,-42.89,0,*58
1522019084.32,33271,10.25,72534.8,-9.85,-43.09,-43.09,0,*50
1522019085.53,33272,10.25,72530.5,-9.85,-43.01,-43.01,0,*53
1522019086.74,33273,10.25,72530.0,-9.85,-43.01,-43.01,0,*52
1522019088.02,33274,10.25,72530.3,-9.87,-43.21,-43.09,0,*5D
1522019089.25,33275,10.19,72528.8,-9.85,-43.09,-43.01,0,*5C
1522019090.49,33276,10.19,72528.8,-9.85,-43.09,-43.01,0,*5F
1522019091.72,33277,10.19,72532.0,-9.85,-43.21,-43.01,0,*54
1522019092.97,33278,10.25,72532.5,-9.85,-43.21,-43.09,0,*53
1522019094.2,33279,10.25,72532.3,-9.85,-43.09,-43.01,0,*50
1522019095.47,33280,10.25,72534.3,-9.85,-43.09,-43.09,0,*5E
1522019096.74,33281,10.25,72534.8,-9.87,-43.21,-43.09,0,*57
1522019097.98,33282,10.19,72532.8,-9.85,-43.41,-43.09,0,*50
1522019099.24,33283,10.25,72536.3,-9.85,-43.29,-43.09,0,*5F
1522019100.5,33284,10.25,72536.0,-9.85,-43.29,-43.09,0,*58
1522019101.76,33285,10.19,72532.8,-9.85,-43.29,-43.09,0,*59
1522019102.99,33286,10.19,72534.0,-9.85,-43.09,-42.89,0,*51
1522019104.25,33287,10.19,72532.5,-9.85,-43.09,-43.09,0,*59
1522019105.51,33288,10.25,72536.5,-9.85,-43.29,-43.09,0,*54
1522019106.75,33289,10.25,72536.5,-9.85,-43.41,-43.09,0,*5B
1522019108.0,33290,10.25,72532.5,-9.83,-43.15,-42.95,0,*50
1522019109.22,33291,10.25,72532.5,-9.83,-43.15,-43.01,0,*5D
1522019110.48,33292,10.25,72534.8,-9.83,-43.15,-42.95,0,*52
1522019111.71,33293,10.25,72536.0,-9.85,-43.41,-43.29,0,*52
1522019112.97,33294,10.25,72536.3,-9.85,-43.29,-43.21,0,*53
1522019114.22,33295,10.25,72538.5,-9.85,-43.21,-43.21,0,*5A
1522019115.47,33296,10.19,72530.0,-9.85,-43.21,-43.09,0,*53
1522019116.73,33297,10.25,72532.5,-9.85,-43.29,-43.21,0,*50
1522019117.96,33298,10.19,72534.0,-9.85,-43.41,-43.21,0,*51
1522019119.19,33299,10.19,72530.8,-9.85,-43.41,-43.29,0,*58
1522019120.42,33300,10.25,72534.5,-9.85,-43.41,-43.29,0,*59
1522019121.66,33301,10.25,72534.0,-9.85,-43.41,-43.21,0,*50
1522019122.89,33302,10.19,72530.5,-9.85,-43.41,-43.21,0,*53
1522019124.17,33303,10.25,72532.5,-9.87,-43.21,-43.09,0,*5C
1522019125.42,33304,10.19,72532.5,-9.85,-43.29,-43.21,0,*5B
1522019126.68,33305,10.19,72530.0,-9.85,-43.29,-43.21,0,*5A
1522019127.93,33306,10.19,72532.5,-9.83,-42.83,-42.75,0,*5E
1522019129.14,33307,10.19,72528.8,-9.85,-43.01,-43.01,0,*50
1522019130.35,33308,10.19,72528.3,-9.85,-42.89,-42.89,0,*5F
1522019131.63,33309,10.19,72526.8,-9.87,-42.83,-42.69,0,*58
1522019132.83,33310,10.25,72534.3,-9.85,-42.89,-42.89,0,*56
1522019134.04,33311,10.19,72530.0,-9.85,-43.01,-42.89,0,*56
1522019135.32,33312,10.19,72530.0,-9.83,-42.95,-42.83,0,*55
1522019136.58,33313,10.19,72532.0,-9.83,-42.95,-42.75,0,*5D
1522019137.84,33314,10.19,72530.8,-9.83,-42.83,-42.75,0,*5D
1522019139.06,33315,10.19,72532.5,-9.83,-43.15,-43.01,0,*50
1522019140.35,33316,10.25,72534.0,-9.83,-42.95,-42.95,0,*56
1522019141.64,33317,10.25,72534.5,-9.83,-42.95,-42.95,0,*57
1522019142.9,33318,10.25,72534.3,-9.83,-43.01,-42.95,0,*54
1522019144.18,33319,10.19,72530.5,-9.83,-42.95,-42.83,0,*5E
1522019145.45,33320,10.19,72528.5,-9.83,-42.83,-42.83,0,*53
1522019146.68,33321,10.25,72532.0,-9.83,-43.15,-43.01,0,*57
1522019147.9,33322,10.25,72532.3,-9.83,-43.35,-43.15,0,*53
1522019149.1,33323,10.19,72530.0,-9.81,-43.35,-43.15,0,*50
1522019150.35,33324,10.25,72534.3,-9.83,-43.35,-43.21,0,*52
1522019151.57,33325,10.19,72528.3,-9.83,-43.15,-43.01,0,*53
1522019152.83,33326,10.19,72530.5,-9.83,-43.15,-42.95,0,*5C
1522019154.09,33327,10.25,72534.0,-9.83,-42.95,-42.75,0,*5A
1522019155.35,33328,10.19,72530.3,-9.83,-42.95,-42.75,0,*55
1522019156.64,33329,10.25,72532.3,-9.83,-42.95,-42.95,0,*5A
1522019157.92,33330,10.19,72528.0,-9.83,-42.95,-42.95,0,*52
1522019159.15,33331,10.19,72534.5,-9.83,-43.15,-43.01,0,*56
1522019160.37,33332,10.19,72532.5,-9.83,-43.15,-43.01,0,*55
1522019161.62,33333,10.25,72532.0,-9.83,-43.21,-43.01,0,*53
1522019162.87,33334,10.25,72534.8,-9.83,-43.21,-43.15,0,*51
1522019164.12,33335,10.25,72532.0,-9.83,-43.21,-43.15,0,*50
1522019165.34,33336,10.25,72534.0,-9.81,-43.21,-43.15,0,*51
1522019166.59,33337,10.19,72530.0,-9.83,-43.21,-43.15,0,*52
1522019167.84,33338,10.25,72532.8,-9.81,-43.21,-43.21,0,*58
1522019169.09,33339,10.19,72532.5,-9.83,-43.21,-43.15,0,*5C
1522019170.31,33340,10.25,72534.8,-9.83,-43.15,-43.15,0,*55
1522019171.56,33341,10.19,72532.0,-9.83,-43.21,-43.15,0,*53
1522019172.81,33342,10.25,72532.3,-9.83,-43.15,-43.21,0,*50
1522019174.05,33343,10.25,72534.3,-9.81,-43.21,-43.21,0,*54
1522019175.28,33344,10.19,72532.3,-9.83,-43.35,-43.15,0,*53
1522019176.53,33345,10.19,72532.5,-9.83,-43.35,-43.21,0,*55
1522019177.77,33346,10.19,72532.3,-9.83,-43.21,-43.15,0,*54
1522019179.06,33347,10.25,72538.3,-9.83,-42.95,-42.95,0,*52
1522019180.32,33348,10.19,72530.5,-9.83,-43.01,-42.95,0,*51
1522019181.56,33349,10.25,72532.8,-9.83,-43.01,-43.01,0,*5C
1522019182.82,33350,10.19,72528.5,-9.83,-42.95,-42.75,0,*5A
1522019184.07,33351,10.19,72532.5,-9.83,-43.15,-42.95,0,*5C
1522019185.3,33352,10.19,72532.3,-9.83,-43.35,-43.01,0,*51
1522019186.53,33353,10.19,72534.5,-9.83,-43.41,-43.35,0,*54
1522019187.74,33354,10.19,72534.3,-9.85,-43.49,-43.15,0,*5F
1522019188.96,33355,10.19,72536.3,-9.85,-43.61,-43.41,0,*55
1522019190.17,33356,10.19,72532.5,-9.85,-43.49,-43.41,0,*5C
1522019191.4,33357,10.19,72534.8,-9.85,-43.49,-43.29,0,*53
1522019192.63,33358,10.19,72532.5,-9.85,-43.49,-43.29,0,*5C
1522019193.85,33359,10.19,72534.8,-9.85,-43.61,-43.49,0,*51
1522019195.06,33360,10.19,72532.5,-9.85,-43.49,-43.41,0,*59
1522019196.33,33361,10.19,72534.5,-9.83,-43.55,-43.21,0,*55
1522019197.59,33362,10.19,72532.3,-9.83,-43.55,-43.35,0,*53
1522019198.82,33363,10.19,72530.0,-9.85,-43.49,-43.29,0,*54
1522019200.04,33364,10.25,72536.5,-9.85,-43.61,-43.41,0,*57
1522019201.25,33365,10.19,72536.0,-9.85,-43.61,-43.49,0,*5E
1522019202.46,33366,10.19,72532.8,-9.85,-43.49,-43.49,0,*57
1522019203.67,33367,10.25,72534.5,-9.85,-43.61,-43.49,0,*5C
1522019204.9,33368,10.19,72532.3,-9.85,-43.67,-43.61,0,*5F
1522019206.19,33369,10.19,72532.0,-9.87,-43.67,-43.67,0,*5A
1522019207.45,33370,10.19,72532.5,-9.87,-43.67,-43.61,0,*54
1522019208.66,33371,10.19,72532.5,-9.85,-43.61,-43.49,0,*5B
1522019209.9,33372,10.19,72534.3,-9.87,-43.49,-43.41,0,*58
1522019211.13,33373,10.25,72534.0,-9.87,-43.49,-43.41,0,*59
1522019212.36,33374,10.19,72530.3,-9.85,-43.49,-43.29,0,*52
1522019213.62,33375,10.19,72528.3,-9.87,-43.41,-43.21,0,*51
1522019214.9,33376,10.25,72534.0,-9.87,-43.29,-43.21,0,*5C
1522019216.18,33377,10.19,72530.8,-9.87,-43.29,-43.21,0,*5D
1522019217.41,33378,10.19,72534.3,-9.89,-43.55,-43.35,0,*52
1522019218.67,33379,10.19,72534.5,-9.89,-43.29,-43.29,0,*55
1522019219.87,33380,10.19,72532.5,-9.89,-43.35,-43.15,0,*51
1522019221.13,33381,10.19,72534.5,-9.89,-43.29,-43.09,0,*50
1522019222.34,33382,10.19,72532.8,-9.89,-43.35,-43.15,0,*53
1522019223.55,33383,10.19,72534.0,-9.89,-43.49,-43.35,0,*5B
1522019224.79,33384,10.25,72534.3,-9.87,-43.49,-43.41,0,*51
1522019226.02,33385,10.19,72532.8,-9.89,-43.67,-43.49,0,*5A
1522019227.26,33386,10.19,72532.3,-9.87,-43.61,-43.41,0,*59
1522019228.5,33387,10.19,72530.8,-9.87,-43.61,-43.41,0,*58
1522019229.73,33388,10.19,72530.3,-9.87,-43.49,-43.41,0,*5D
1522019230.99,33389,10.19,72530.3,-9.89,-43.67,-43.29,0,*50
1522019232.25,33390,10.25,72532.3,-9.91,-43.49,-43.29,0,*5D
1522019233.48,33391,10.19,72534.0,-9.89,-43.67,-43.35,0,*54
1522019234.74,33392,10.25,72534.3,-9.89,-43.29,-43.29,0,*50
1522019235.97,33393,10.19,72528.3,-9.89,-43.49,-43.29,0,*57
1522019237.23,33394,10.19,72526.0,-9.91,-43.29,-43.15,0,*50
1522019238.47,33395,10.25,72534.0,-9.89,-43.29,-43.15,0,*58
1522019239.7,33396,10.19,72530.5,-9.89,-43.15,-43.09,0,*59
1522019240.96,33397,10.19,72530.0,-9.89,-42.95,-42.95,0,*55
1522019242.23,33398,10.19,72530.5,-9.89,-43.09,-42.95,0,*5E
1522019243.49,33399,10.19,72534.5,-9.89,-42.95,-42.95,0,*5B
1522019244.7,33400,10.19,72530.5,-9.89,-42.89,-42.75,0,*5F
1522019245.97,33401,10.19,72532.0,-9.89,-42.95,-42.69,0,*5E
1522019247.22,33402,10.25,72534.3,-9.87,-43.09,-42.89,0,*59
1522019248.48,33403,10.19,72532.3,-9.87,-43.41,-43.21,0,*57
1522019249.71,33404,10.19,72528.3,-9.85,-43.29,-43.01,0,*5E
1522019250.99,33405,10.19,72534.5,-9.87,-43.21,-43.09,0,*5D
1522019252.27,33406,10.19,72530.5,-9.87,-43.29,-43.21,0,*5C
1522019253.54,33407,10.25,72534.8,-9.87,-43.21,-43.09,0,*5F
1522019254.82,33408,10.25,72534.0,-9.87,-43.29,-43.21,0,*52
1522019256.08,33409,10.19,72530.5,-9.85,-43.29,-43.21,0,*51
1522019257.35,33410,10.19,72530.5,-9.87,-43.29,-43.21,0,*5B
1522019258.61,33411,10.19,72534.5,-9.87,-43.41,-43.29,0,*5C
1522019259.87,33412,10.19,72532.3,-9.87,-43.49,-43.29,0,*57
1522019261.1,33413,10.19,72528.0,-9.87,-43.49,-43.41,0,*58
1522019262.34,33414,10.19,72534.3,-9.85,-43.49,-43.29,0,*53
1522019263.57,33415,10.25,72534.3,-9.87,-43.49,-43.41,0,*5E
1522019264.81,33416,10.19,72530.5,-9.87,-43.61,-43.41,0,*57
1522019266.05,33417,10.19,72534.3,-9.87,-43.61,-43.41,0,*56
1522019267.31,33418,10.19,72532.3,-9.89,-43.67,-43.55,0,*54
1522019268.54,33419,10.19,72528.3,-9.89,-43.67,-43.49,0,*58
1522019269.78,33420,10.19,72530.8,-9.89,-43.67,-43.49,0,*52
1522019271.01,33421,10.19,72534.3,-9.89,-43.67,-43.49,0,*53
1522019272.24,33422,10.19,72532.3,-9.89,-43.67,-43.49,0,*50
1522019273.48,33423,10.19,72532.0,-9.89,-43.55,-43.35,0,*5B
1522019274.74,33424,10.19,72530.3,-9.91,-43.55,-43.35,0,*55
1522019275.98,33425,10.19,72534.8,-9.89,-43.55,-43.35,0,*5D
1522019277.21,33426,10.19,72532.5,-9.89,-43.55,-43.35,0,*5E
1522019278.44,33427,10.25,72532.8,-9.89,-43.55,-43.49,0,*54
1522019279.68,33428,10.19,72530.5,-9.89,-43.67,-43.49,0,*5A
1522019280.96,33429,10.19,72528.5,-9.91,-43.67,-43.55,0,*5F
1522019282.25,33430,10.19,72528.5,-9.91,-43.67,-43.55,0,*57
1522019283.48,33431,10.19,72534.3,-9.89,-43.55,-43.49,0,*53
1522019284.74,33432,10.19,72532.0,-9.91,-43.55,-43.49,0,*59
1522019286.02,33433,10.19,72528.8,-9.91,-43.55,-43.55,0,*55
1522019287.28,33434,10.19,72528.5,-9.91,-43.67,-43.49,0,*5E
1522019288.57,33435,10.19,72532.3,-9.91,-43.67,-43.55,0,*52
1522019289.83,33436,10.19,72532.3,-9.91,-43.67,-43.49,0,*5C
1522019291.12,33437,10.19,72528.3,-9.91,-43.67,-43.67,0,*51
1522019292.37,33438,10.19,72532.5,-9.91,-43.55,-43.49,0,*53
1522019293.64,33439,10.19,72530.5,-9.91,-43.67,-43.35,0,*58
1522019294.92,33440,10.19,72532.5,-9.91,-43.67,-43.55,0,*50
1522019296.18,33441,10.19,72534.8,-9.91,-43.55,-43.35,0,*56
1522019297.42,33442,10.19,72530.8,-9.95,-43.75,-43.41,0,*50